Paris/Charles de Gaulle Airport

Airport
ICAO code: 
LFPG
IATA Code: 
CDG
Summary
ICAO Region: 
EUR
Territory: 
Location: 
Roissy-en-France, Ile-de-France
Serving: 
Paris
Elevation: 
392 ft
Coordinates: 
Aerial View: 
49° 0' 31.488" N, 2° 32' 36.83" E
Airport LOS: 
Parallel Runway Operation
Metar
Observation
LFPG 272100Z 07003KT CAVOK 18/11 Q1021 NOSIG
Station
Paris-Aeroport Charles De Gaulle
Date/Time
2022-06-27 21:00:00
Wind direction
70°
Wind speed
03 kts
Lowest cloud amount
clouds and visibility OK
Temperature
18°C
Dew point
11°C
Humidity
63%
QNH
1021 hPa
Weather condition
n/a

Description

International airport serving Paris.

Climatology

Temperate Marine climate/Oceanic climate (Köppen climate classification Cfb). Moderately cool summer and comparatively warm winter. Prevailing south-westerly winds from the Atlantic Ocean.

Runways

Designator Length Width Surface Rops
08R/26L 2700 60 CON Yes/Yes
09L/27R 2700 60 ASP Yes/Yes
09R/27L 4200 45 ASP Yes/Yes
08L/26R 4215 45 ASP Yes/Yes

SKYbrary Partners:

Safety knowledge contributed by: